Location: Barrio Las Umbrías
(40.4173°N, 4.8685°W)
Time: 12:22:15
(UTC+00:00)

Cosmos 1420 Rocket - Pass Details

Date: 17 August 2022
Orbit: 755 x 780 km, 74.0° (Epoch: 27 September)

Event Time Altitude Azimuth Distance (km) Brightness Sun altitude
Rises 22:17:37 0° 341° (NNW) 3,248 8.4 -29.0°
Reaches altitude 10° 22:20:01 10° 342° (NNW) 2,313 7.3 -29.2°
Enters shadow 22:24:19 61° 348° (NNW) 867 4.4 -29.7°
